Sault Ste Marie, MI

6:24 PM EDT on October 19, 2017 (GMT -0400)
Sault Ste Marie Municipal / Sanderson Field

Weather History for KANJ - March, 2013

Change the Weather History Date:

Monday, March 18, 2013

  Actual Average Record
Temperature  
Mean Temperature 21 °F 27 °F  
Max Temperature 32 °F 35 °F 72 °F (2012)
Min Temperature 9 °F 18 °F -14 °F (1939)
Degree Days  
Heating Degree Days 44 38  
Month to date heating degree days 760 743  
Since 1 July heating degree days 6492 6869  
Cooling Degree Days 0 0  
Month to date cooling degree days 0 0  
Year to date cooling degree days 0 0  
Moisture  
Dew Point 12 °F    
Average Humidity 62    
Maximum Humidity 84    
Minimum Humidity 39    
Precipitation  
Precipitation 0.14 in 0.06 in 0.62 in (1986)
Month to date precipitation 1.90 1.05  
Year to date precipitation 7.99 4.58  
Snow  
Snow 1.40 in 0.40 in 4.30 in (1986)
Month to date snowfall 12.7 8.8  
Since 1 July snowfall 133.5 109.0  
Snow Depth 26.00 in    
Sea Level Pressure  
Sea Level Pressure 29.86 in    
Wind  
Wind Speed 12 mph (ESE)    
Max Wind Speed 18 mph    
Max Gust Speed 37 mph    
Visibility 7 miles    
Events Fog , Snow    
T = Trace of Precipitation, MM = Missing Value Source: NWS Daily Summary

Daily Weather History Graph

Daily Weather History Graph

Search for Another Location

Airport or City:

Trip Planner

Search our weather history database for the weather conditions in past years. The results will help you decide how hot, cold, wet, or windy it might be!

Date:

Astronomy

Mar. 18, 2013 Rise Set
Actual Time 7:43 AM EDT 7:47 PM EDT
Civil Twilight 7:13 AM EDT 8:17 PM EDT
Nautical Twilight 6:38 AM EDT 8:53 PM EDT
Astronomical Twilight 6:02 AM EDT 9:29 PM EDT
Moon 11:22 AM EDT (3/18) 2:05 AM EDT (3/18)
Length of Visible Light 13h 03m
Length of Day
12h 03m
Waxing Crescent, 40% of the Moon is Illuminated
Mar 18
Waxing Crescent
Mar 19
First Quarter
Mar 27
Full
Apr 3
Last Quarter
Apr 10
New

Hourly Weather History & Observations

Time (EDT) Temp. Windchill Dew Point Humidity Pressure Visibility Wind Dir Wind Speed Gust Speed Precip Events Conditions
12:55 AM 9.0 °F -2.2 °F -0.0 °F 67% 30.26 in 10.0 mi East 6.9 mph - 0.00 in   Clear
1:55 AM 9.0 °F -3.2 °F -0.9 °F 64% 30.24 in 10.0 mi East 8.1 mph - N/A   Clear
2:55 AM 10.0 °F 0.4 °F -4.0 °F 53% 30.24 in 10.0 mi ESE 5.8 mph - N/A   Clear
3:55 AM 9.0 °F -3.2 °F -2.9 °F 59% 30.22 in 10.0 mi East 8.1 mph - N/A   Clear
4:32 AM 9.0 °F -2.2 °F -2.0 °F 61% 30.17 in 10.0 mi East 6.9 mph - N/A   Mostly Cloudy
4:55 AM 10.0 °F -1.9 °F -2.0 °F 58% 30.19 in 10.0 mi East 8.1 mph - N/A   Mostly Cloudy
5:03 AM 10.0 °F -1.9 °F -2.0 °F 58% 30.15 in 10.0 mi East 8.1 mph - N/A   Partly Cloudy
5:55 AM 9.0 °F -0.9 °F -0.9 °F 64% 30.17 in 10.0 mi East 5.8 mph - N/A   Clear
6:55 AM 10.9 °F -0.8 °F 1.0 °F 64% 30.16 in 10.0 mi East 8.1 mph - N/A   Clear
7:44 AM 10.9 °F -1.8 °F 1.9 °F 67% 30.10 in 10.0 mi East 9.2 mph - N/A   Mostly Cloudy
7:55 AM 12.0 °F -1.3 °F 3.0 °F 67% 30.13 in 10.0 mi East 10.4 mph 18.4 mph N/A   Overcast
8:55 AM 16.0 °F 3.6 °F 6.1 °F 65% 30.11 in 10.0 mi East 10.4 mph 18.4 mph N/A   Overcast
9:55 AM 19.9 °F 7.3 °F 8.1 °F 60% 30.07 in 10.0 mi ESE 12.7 mph 23.0 mph N/A   Overcast
10:55 AM 23.0 °F 9.6 °F 12.0 °F 63% 30.03 in 10.0 mi ESE 16.1 mph 27.6 mph N/A   Scattered Clouds
11:55 AM 26.1 °F 13.6 °F 14.0 °F 60% 29.97 in 6.0 mi ESE 16.1 mph 28.8 mph 0.00 in   Clear
12:55 PM 28.0 °F 15.7 °F 14.0 °F 56% 29.95 in 9.0 mi ESE 17.3 mph 29.9 mph 0.00 in   Clear
1:55 PM 30.0 °F 17.9 °F 10.9 °F 45% 29.86 in 9.0 mi ESE 18.4 mph 33.4 mph 0.00 in   Clear
2:55 PM 32.0 °F 21.2 °F 10.0 °F 40% 29.81 in 10.0 mi ESE 16.1 mph 25.3 mph 0.00 in   Clear
3:55 PM 32.0 °F 20.8 °F 14.0 °F 48% 29.77 in 9.0 mi SE 17.3 mph 27.6 mph 0.00 in   Clear
4:55 PM 32.0 °F 22.5 °F 14.0 °F 48% 29.72 in 10.0 mi ESE 12.7 mph 26.5 mph 0.00 in   Mostly Cloudy
5:55 PM 30.9 °F 22.2 °F 14.0 °F 50% 29.71 in 10.0 mi ESE 10.4 mph 21.9 mph N/A   Overcast
6:55 PM 30.9 °F 21.7 °F 12.0 °F 46% 29.67 in 10.0 mi ESE 11.5 mph 27.6 mph N/A   Overcast
7:11 PM 28.9 °F 15.4 °F 15.1 °F 56% 29.65 in 1.8 mi ESE 21.9 mph 36.8 mph 0.00 in Snow Light Snow
7:28 PM 28.0 °F 15.3 °F 18.0 °F 66% 29.64 in 1.5 mi ESE 18.4 mph 33.4 mph 0.00 in Snow Light Snow
7:37 PM 27.0 °F 13.2 °F 19.9 °F 75% 29.64 in 0.5 mi ESE 20.7 mph 29.9 mph 0.00 in Snow Snow
7:55 PM 27.0 °F 14.3 °F 21.9 °F 81% 29.66 in 0.8 mi ESE 17.3 mph 26.5 mph 0.00 in Snow Light Snow
8:09 PM 26.1 °F 15.0 °F 23.0 °F 88% 29.63 in 0.2 mi ESE 12.7 mph 27.6 mph 0.02 in Fog , Snow Heavy Snow
8:55 PM 27.0 °F 18.0 °F 23.0 °F 85% 29.63 in 0.8 mi ESE 9.2 mph 21.9 mph 0.06 in Snow Light Snow
9:34 PM 27.0 °F 15.2 °F 23.0 °F 85% 29.59 in 0.8 mi ESE 15.0 mph 28.8 mph 0.01 in Snow Light Snow
9:55 PM 27.0 °F 15.6 °F 23.0 °F 85% 29.60 in 0.8 mi East 13.8 mph 31.1 mph 0.03 in Snow Light Snow
10:11 PM 27.0 °F 14.7 °F 23.0 °F 85% 29.56 in 1.0 mi ESE 16.1 mph 26.5 mph 0.01 in Snow Light Snow
10:41 PM 27.0 °F 16.7 °F 21.9 °F 81% 29.55 in 2.0 mi ESE 11.5 mph 27.6 mph 0.02 in Snow Light Snow
10:55 PM 27.0 °F 16.1 °F 21.9 °F 81% 29.57 in 4.0 mi ESE 12.7 mph 21.9 mph 0.02 in Snow Light Snow
11:33 PM 27.0 °F 14.7 °F 21.9 °F 81% 29.53 in 2.5 mi ESE 16.1 mph 25.3 mph 0.00 in Snow Light Snow
11:42 PM 27.0 °F 16.7 °F 21.9 °F 81% 29.52 in 3.0 mi ESE 11.5 mph 25.3 mph 0.01 in Snow Light Snow
11:55 PM 27.0 °F 14.7 °F 21.9 °F 81% 29.54 in 4.0 mi ESE 16.1 mph 26.5 mph 0.01 in Snow Light Snow